Tracking 19562 objects as of 21-Mar-2019
HD Live streaming from Space Station
objects crossing your sky now

ONEWEB-0008

Track ONEWEB-0008 now!
10-day predictions


NORAD ID: 44059
Int'l Code: 2019-010C
Perigee: 994.4 km
Apogee: 1,017.1 km
Inclination: 87.8 °
Period: 105.1 minutes
Semi major axis: 7376 km
RCS: Unknown
Launch date: February 27, 2019
Source: United Kingdom (UK)
Launch site: FRENCH GUIANA (FRGUI)
aabbcc
Your satellite tracking list
Your tracking list is empty




NASA's NSSDC Master Catalog

Two Line Element Set (TLE):
1 44059U 19010C   19079.49066004  .00000078  00000-0  71717-4 0  9990
2 44059  87.7706  66.0062 0015408 184.2733 175.8300 13.70262372  2802
Source of the keplerian elements: AFSPC